Time,TemperatureF,DewpointF,PressureIn,WindDirection,WindDirectionDegrees,WindSpeedMPH,WindSpeedGustMPH,Humidity,HourlyPrecipIn,Conditions,Clouds,dailyrainin,SoftwareType,DateUTC
2013-05-26 00:01:00,62.7,52.0,29.97,ESE,113,0.0,0.0,68,0.00,,,0.00,WUHU216HW,2013-05-26 04:01:00,
2013-05-26 00:06:00,62.4,51.7,29.98,ESE,113,0.0,0.0,68,0.00,,,0.00,WUHU216HW,2013-05-26 04:06:00,
2013-05-26 00:11:00,62.4,51.7,29.98,ESE,113,0.0,0.0,68,0.00,,,0.00,WUHU216HW,2013-05-26 04:11:00,
2013-05-26 00:16:00,62.2,51.9,29.98,ESE,113,0.0,0.0,69,0.00,,,0.00,WUHU216HW,2013-05-26 04:16:00,
2013-05-26 00:21:00,62.0,51.8,29.98,ESE,113,0.0,0.0,69,0.00,,,0.00,WUHU216HW,2013-05-26 04:21:00,
2013-05-26 00:26:00,61.8,51.6,29.98,ESE,113,0.0,0.0,69,0.00,,,0.00,WUHU216HW,2013-05-26 04:26:00,
2013-05-26 00:31:00,61.8,51.6,29.98,ESE,113,0.0,0.0,69,0.00,,,0.00,WUHU216HW,2013-05-26 04:31:00,
2013-05-26 00:36:00,61.7,51.4,29.99,ESE,113,0.0,0.0,69,0.00,,,0.00,WUHU216HW,2013-05-26 04:36:00,
2013-05-26 00:41:00,61.5,51.7,29.99,ESE,113,0.0,0.0,70,0.00,,,0.00,WUHU216HW,2013-05-26 04:41:00,
2013-05-26 00:46:00,61.3,51.5,29.99,ESE,113,0.0,0.0,70,0.00,,,0.00,WUHU216HW,2013-05-26 04:46:00,
2013-05-26 00:51:00,61.3,51.5,29.99,ESE,113,0.0,0.0,70,0.00,,,0.00,WUHU216HW,2013-05-26 04:51:00,
2013-05-26 00:56:00,61.1,51.7,30.00,ESE,113,0.0,0.0,71,0.00,,,0.00,WUHU216HW,2013-05-26 04:56:00,
2013-05-26 01:01:00,61.1,51.7,30.00,ENE,68,0.0,0.0,71,0.00,,,0.00,WUHU216HW,2013-05-26 05:01:00,
2013-05-26 01:08:00,61.1,51.7,30.00,ENE,68,0.0,0.0,71,0.00,,,0.00,WUHU216HW,2013-05-26 05:08:00,
2013-05-26 01:13:00,61.1,51.7,29.99,NNE,23,0.0,0.0,71,0.00,,,0.00,WUHU216HW,2013-05-26 05:13:00,
2013-05-26 01:18:00,61.3,51.9,29.99,NNE,23,0.0,0.0,71,0.00,,,0.00,WUHU216HW,2013-05-26 05:18:00,
2013-05-26 01:23:00,61.3,51.1,30.00,NNE,23,0.0,0.0,69,0.00,,,0.00,WUHU216HW,2013-05-26 05:23:00,
2013-05-26 01:28:00,61.5,50.4,29.99,NNE,23,0.0,0.0,67,0.00,,,0.00,WUHU216HW,2013-05-26 05:28:00,
2013-05-26 01:33:00,61.5,50.0,30.00,NE,45,0.0,0.0,66,0.00,,,0.00,WUHU216HW,2013-05-26 05:33:00,
2013-05-26 01:38:00,61.8,49.1,29.99,NE,45,0.0,0.0,63,0.00,,,0.00,WUHU216HW,2013-05-26 05:38:00,
2013-05-26 01:43:00,62.0,48.7,30.00,East,90,0.0,0.0,62,0.00,,,0.00,WUHU216HW,2013-05-26 05:43:00,
2013-05-26 01:47:00,62.2,48.2,29.99,NE,45,0.0,0.0,60,0.00,,,0.00,WUHU216HW,2013-05-26 05:47:00,
2013-05-26 01:52:00,62.4,47.9,29.99,NE,45,0.0,0.0,59,0.00,,,0.00,WUHU216HW,2013-05-26 05:52:00,
2013-05-26 01:57:00,62.4,47.9,29.99,NE,45,0.0,0.0,59,0.00,,,0.00,WUHU216HW,2013-05-26 05:57:00,
2013-05-26 02:02:00,62.4,46.9,29.99,NE,45,0.0,0.0,58,0.00,,,0.00,WUHU216HW,2013-05-26 06:02:00,
2013-05-26 02:07:00,62.4,46.9,29.99,ENE,68,0.0,0.0,57,0.00,,,0.00,WUHU216HW,2013-05-26 06:07:00,
2013-05-26 02:12:00,62.4,46.4,29.99,ENE,68,0.0,0.0,56,0.00,,,0.00,WUHU216HW,2013-05-26 06:12:00,
2013-05-26 02:17:00,62.4,46.4,29.99,NE,45,0.0,0.0,56,0.00,,,0.00,WUHU216HW,2013-05-26 06:17:00,
2013-05-26 02:22:00,62.4,46.4,29.99,NNE,23,0.0,0.0,56,0.00,,,0.00,WUHU216HW,2013-05-26 06:22:00,
2013-05-26 02:27:00,62.4,46.4,30.00,NE,45,0.0,0.0,56,0.00,,,0.00,WUHU216HW,2013-05-26 06:27:00,
2013-05-26 02:32:00,62.4,45.9,30.00,NE,45,0.0,0.0,55,0.00,,,0.00,WUHU216HW,2013-05-26 06:32:00,
2013-05-26 02:37:00,62.4,45.9,30.00,North,0,0.0,0.0,55,0.00,,,0.00,WUHU216HW,2013-05-26 06:37:00,
2013-05-26 02:42:00,62.4,45.9,30.00,NE,45,0.0,0.0,55,0.00,,,0.00,WUHU216HW,2013-05-26 06:42:00,
2013-05-26 02:47:00,62.4,45.4,30.00,ENE,68,0.0,0.0,54,0.00,,,0.00,WUHU216HW,2013-05-26 06:47:00,
2013-05-26 02:52:00,62.4,45.4,30.00,NNE,23,0.0,0.0,54,0.00,,,0.00,WUHU216HW,2013-05-26 06:52:00,
2013-05-26 02:57:00,62.4,45.9,30.01,NNE,23,0.0,0.0,55,0.00,,,0.00,WUHU216HW,2013-05-26 06:57:00,
2013-05-26 03:02:00,62.4,45.9,30.00,NNE,23,0.0,0.0,55,0.00,,,0.00,WUHU216HW,2013-05-26 07:02:00,
2013-05-26 03:07:00,62.4,45.4,30.00,NNE,23,0.0,0.0,54,0.00,,,0.00,WUHU216HW,2013-05-26 07:07:00,
2013-05-26 03:12:00,62.4,45.9,30.00,NNE,23,0.0,0.0,55,0.00,,,0.00,WUHU216HW,2013-05-26 07:12:00,
2013-05-26 03:17:00,62.4,46.4,30.00,NNE,23,0.0,0.0,56,0.00,,,0.00,WUHU216HW,2013-05-26 07:17:00,
2013-05-26 03:22:00,62.4,46.4,29.99,NNE,23,0.0,0.0,56,0.00,,,0.00,WUHU216HW,2013-05-26 07:22:00,
2013-05-26 03:27:00,62.2,46.2,29.99,NNE,23,0.0,0.0,56,0.00,,,0.00,WUHU216HW,2013-05-26 07:27:00,
2013-05-26 03:32:00,62.2,45.8,29.98,NNE,23,0.0,0.0,55,0.00,,,0.00,WUHU216HW,2013-05-26 07:32:00,
2013-05-26 03:37:00,62.0,46.1,29.98,NNE,23,0.0,0.0,56,0.00,,,0.00,WUHU216HW,2013-05-26 07:37:00,
2013-05-26 03:42:00,61.8,45.4,29.99,NNE,23,0.0,0.0,55,0.00,,,0.00,WUHU216HW,2013-05-26 07:42:00,
2013-05-26 03:47:00,61.8,45.9,29.99,NNE,23,0.0,0.0,56,0.00,,,0.00,WUHU216HW,2013-05-26 07:47:00,
2013-05-26 03:52:00,61.8,45.9,29.99,NNE,23,0.0,0.0,56,0.00,,,0.00,WUHU216HW,2013-05-26 07:52:00,
2013-05-26 03:57:00,61.8,45.4,29.99,NNE,23,0.0,0.0,55,0.00,,,0.00,WUHU216HW,2013-05-26 07:57:00,
2013-05-26 04:02:00,61.7,45.8,30.00,NNE,23,0.0,0.0,56,0.00,,,0.00,WUHU216HW,2013-05-26 08:02:00,
2013-05-26 04:07:00,61.7,45.8,30.00,NNE,23,0.0,0.0,56,0.00,,,0.00,WUHU216HW,2013-05-26 08:07:00,
2013-05-26 04:12:00,61.5,45.6,30.00,NNE,23,0.0,0.0,56,0.00,,,0.00,WUHU216HW,2013-05-26 08:12:00,
2013-05-26 04:17:00,61.5,45.6,30.00,WNW,293,0.0,0.0,56,0.00,,,0.00,WUHU216HW,2013-05-26 08:17:00,
2013-05-26 04:22:00,61.5,45.6,29.99,WNW,293,0.0,0.0,56,0.00,,,0.00,WUHU216HW,2013-05-26 08:22:00,
2013-05-26 04:27:00,61.3,45.4,30.00,NNW,338,0.0,0.0,56,0.00,,,0.00,WUHU216HW,2013-05-26 08:27:00,
2013-05-26 04:32:00,61.1,45.3,30.00,NNW,338,0.0,0.0,56,0.00,,,0.00,WUHU216HW,2013-05-26 08:32:00,
2013-05-26 04:37:00,60.9,45.1,30.00,NNE,23,0.0,0.0,56,0.00,,,0.00,WUHU216HW,2013-05-26 08:37:00,
2013-05-26 04:42:00,60.9,45.1,30.00,NE,45,0.0,0.0,56,0.00,,,0.00,WUHU216HW,2013-05-26 08:42:00,
2013-05-26 04:47:00,60.9,45.1,30.00,NE,45,0.0,0.0,56,0.00,,,0.00,WUHU216HW,2013-05-26 08:47:00,
2013-05-26 04:52:00,60.8,44.9,30.00,NE,45,0.0,0.0,56,0.00,,,0.00,WUHU216HW,2013-05-26 08:52:00,
2013-05-26 04:57:00,60.6,45.3,30.00,NE,45,0.0,0.0,57,0.00,,,0.00,WUHU216HW,2013-05-26 08:57:00,
2013-05-26 05:02:00,60.6,44.8,30.01,NE,45,0.0,0.0,56,0.00,,,0.00,WUHU216HW,2013-05-26 09:02:00,
2013-05-26 05:07:00,60.6,44.8,30.01,North,0,0.0,0.0,56,0.00,,,0.00,WUHU216HW,2013-05-26 09:07:00,
2013-05-26 05:12:00,60.6,44.8,30.01,NE,45,0.0,0.0,56,0.00,,,0.00,WUHU216HW,2013-05-26 09:12:00,
2013-05-26 05:17:00,60.4,44.6,30.01,NE,45,0.0,0.0,56,0.00,,,0.00,WUHU216HW,2013-05-26 09:17:00,
2013-05-26 05:22:00,60.4,44.6,30.01,NE,45,0.0,0.0,56,0.00,,,0.00,WUHU216HW,2013-05-26 09:22:00,
2013-05-26 05:27:00,60.2,44.4,30.02,NE,45,0.0,0.0,56,0.00,,,0.00,WUHU216HW,2013-05-26 09:27:00,
2013-05-26 05:32:00,60.2,44.4,30.02,NE,45,0.0,0.0,56,0.00,,,0.00,WUHU216HW,2013-05-26 09:32:00,
2013-05-26 05:37:00,60.0,44.2,30.02,NE,45,0.0,0.0,56,0.00,,,0.00,WUHU216HW,2013-05-26 09:37:00,
2013-05-26 05:42:00,60.0,44.2,30.02,NE,45,0.0,0.0,56,0.00,,,0.00,WUHU216HW,2013-05-26 09:42:00,
2013-05-26 05:47:00,60.2,44.9,30.02,NE,45,0.0,0.0,57,0.00,,,0.00,WUHU216HW,2013-05-26 09:47:00,
2013-05-26 05:52:00,60.0,44.7,30.02,NNW,338,0.0,0.0,57,0.00,,,0.00,WUHU216HW,2013-05-26 09:52:00,
2013-05-26 05:57:00,60.0,44.7,30.03,NNW,338,0.0,0.0,57,0.00,,,0.00,WUHU216HW,2013-05-26 09:57:00,
2013-05-26 06:02:00,60.0,45.2,30.03,NNW,338,0.0,0.0,58,0.00,,,0.00,WUHU216HW,2013-05-26 10:02:00,
2013-05-26 06:07:00,60.0,45.2,30.03,NNW,338,0.0,0.0,58,0.00,,,0.00,WUHU216HW,2013-05-26 10:07:00,
2013-05-26 06:12:00,60.0,45.2,30.03,NNW,338,0.0,0.0,58,0.00,,,0.00,WUHU216HW,2013-05-26 10:12:00,
2013-05-26 06:17:00,60.0,45.2,30.03,NNE,23,0.0,0.0,58,0.00,,,0.00,WUHU216HW,2013-05-26 10:17:00,
2013-05-26 06:22:00,60.0,45.2,30.03,NNE,23,0.0,0.0,58,0.00,,,0.00,WUHU216HW,2013-05-26 10:22:00,
2013-05-26 06:27:00,60.0,45.2,30.04,NNE,23,0.0,0.0,58,0.00,,,0.00,WUHU216HW,2013-05-26 10:27:00,
2013-05-26 06:32:00,59.9,45.0,30.05,NNE,23,0.0,0.0,58,0.00,,,0.00,WUHU216HW,2013-05-26 10:32:00,
2013-05-26 06:37:00,59.9,45.0,30.05,NNE,23,0.0,0.0,58,0.00,,,0.00,WUHU216HW,2013-05-26 10:37:00,
2013-05-26 06:42:00,59.9,45.0,30.05,NNE,23,0.0,0.0,58,0.00,,,0.00,WUHU216HW,2013-05-26 10:42:00,
2013-05-26 06:47:00,59.9,45.5,30.05,NNE,23,0.0,0.0,59,0.00,,,0.00,WUHU216HW,2013-05-26 10:47:00,
2013-05-26 06:52:00,59.9,45.5,30.05,NNE,23,0.0,0.0,59,0.00,,,0.00,WUHU216HW,2013-05-26 10:52:00,
2013-05-26 06:57:00,59.9,45.5,30.05,NNE,23,0.0,0.0,59,0.00,,,0.00,WUHU216HW,2013-05-26 10:57:00,
2013-05-26 07:02:00,59.9,45.5,30.05,NNE,23,0.0,0.0,59,0.00,,,0.00,WUHU216HW,2013-05-26 11:02:00,
2013-05-26 07:07:00,59.9,45.5,30.05,NNE,23,0.0,0.0,59,0.00,,,0.00,WUHU216HW,2013-05-26 11:07:00,
2013-05-26 07:12:00,59.9,45.5,30.05,NNE,23,0.0,0.0,59,0.00,,,0.00,WUHU216HW,2013-05-26 11:12:00,
2013-05-26 07:17:00,59.7,45.3,30.06,NNE,23,0.0,0.0,59,0.00,,,0.00,WUHU216HW,2013-05-26 11:17:00,
2013-05-26 07:22:00,59.7,45.3,30.05,NNE,23,0.0,0.0,59,0.00,,,0.00,WUHU216HW,2013-05-26 11:22:00,
2013-05-26 07:27:00,59.7,45.3,30.06,NNE,23,0.0,0.0,59,0.00,,,0.00,WUHU216HW,2013-05-26 11:27:00,
2013-05-26 07:32:00,59.7,45.3,30.06,NNE,23,0.0,0.0,59,0.00,,,0.00,WUHU216HW,2013-05-26 11:32:00,
2013-05-26 07:37:00,59.7,45.8,30.05,NNE,23,0.0,0.0,60,0.00,,,0.00,WUHU216HW,2013-05-26 11:37:00,
2013-05-26 07:42:00,59.7,45.8,30.06,NNE,23,0.0,0.0,60,0.00,,,0.00,WUHU216HW,2013-05-26 11:42:00,
2013-05-26 07:47:00,59.7,46.2,30.06,NNE,23,0.0,0.0,61,0.00,,,0.00,WUHU216HW,2013-05-26 11:47:00,
2013-05-26 07:52:00,59.9,46.4,30.06,NNE,23,0.0,0.0,61,0.00,,,0.00,WUHU216HW,2013-05-26 11:52:00,
2013-05-26 07:57:00,59.7,46.6,30.06,NNE,23,0.0,0.0,62,0.00,,,0.00,WUHU216HW,2013-05-26 11:57:00,
2013-05-26 08:02:00,59.5,46.5,30.06,NNE,23,0.0,0.0,62,0.00,,,0.00,WUHU216HW,2013-05-26 12:02:00,
2013-05-26 08:07:00,59.5,46.9,30.07,NNE,23,0.0,0.0,63,0.00,,,0.00,WUHU216HW,2013-05-26 12:07:00,
2013-05-26 08:12:00,59.5,47.3,30.07,NNE,23,0.0,0.0,64,0.00,,,0.00,WUHU216HW,2013-05-26 12:12:00,
2013-05-26 08:16:00,59.7,47.5,30.06,NNE,23,0.0,0.0,64,0.00,,,0.00,WUHU216HW,2013-05-26 12:16:00,
2013-05-26 08:21:00,59.9,47.6,30.06,NNE,23,0.0,0.0,64,0.00,,,0.00,WUHU216HW,2013-05-26 12:21:00,
2013-05-26 08:26:00,60.0,47.8,30.07,NNE,23,0.0,0.0,64,0.00,,,0.00,WUHU216HW,2013-05-26 12:26:00,
2013-05-26 08:31:00,60.0,47.8,30.08,NNE,23,0.0,0.0,64,0.00,,,0.00,WUHU216HW,2013-05-26 12:31:00,
2013-05-26 08:36:00,60.2,48.0,30.08,NNE,23,0.0,0.0,64,0.00,,,0.00,WUHU216HW,2013-05-26 12:36:00,
2013-05-26 08:41:00,60.4,48.2,30.08,NNE,23,0.0,0.0,64,0.00,,,0.00,WUHU216HW,2013-05-26 12:41:00,
2013-05-26 08:46:00,60.4,48.2,30.08,NNE,23,0.0,0.0,64,0.00,,,0.00,WUHU216HW,2013-05-26 12:46:00,
2013-05-26 08:51:00,60.6,48.4,30.08,NNE,23,0.0,0.0,64,0.00,,,0.00,WUHU216HW,2013-05-26 12:51:00,
2013-05-26 08:56:00,60.6,48.4,30.08,NNE,23,0.0,0.0,64,0.00,,,0.00,WUHU216HW,2013-05-26 12:56:00,
2013-05-26 09:01:00,60.6,48.4,30.08,NNE,23,0.0,0.0,64,0.00,,,0.00,WUHU216HW,2013-05-26 13:01:00,
2013-05-26 09:06:00,60.9,48.7,30.08,NNE,23,0.0,0.0,64,0.00,,,0.00,WUHU216HW,2013-05-26 13:06:00,
2013-05-26 09:11:00,61.1,48.9,30.08,NNE,23,0.0,0.0,64,0.00,,,0.00,WUHU216HW,2013-05-26 13:11:00,
2013-05-26 09:16:00,61.3,48.6,30.08,NNE,23,0.0,0.0,63,0.00,,,0.00,WUHU216HW,2013-05-26 13:16:00,
2013-05-26 09:21:00,61.3,48.2,30.08,NNE,23,0.0,0.0,62,0.00,,,0.00,WUHU216HW,2013-05-26 13:21:00,
2013-05-26 09:26:00,61.5,48.4,30.08,NNE,23,0.0,0.0,62,0.00,,,0.00,WUHU216HW,2013-05-26 13:26:00,
2013-05-26 09:31:00,61.7,48.5,30.08,NNE,23,0.0,0.0,62,0.00,,,0.00,WUHU216HW,2013-05-26 13:31:00,
2013-05-26 09:36:00,61.8,48.7,30.08,NNE,23,0.0,0.0,62,0.00,,,0.00,WUHU216HW,2013-05-26 13:36:00,
2013-05-26 09:41:00,62.2,49.0,30.08,NNE,23,0.0,0.0,62,0.00,,,0.00,WUHU216HW,2013-05-26 13:41:00,
2013-05-26 09:46:00,62.4,48.8,30.08,NNE,23,0.0,0.0,61,0.00,,,0.00,WUHU216HW,2013-05-26 13:46:00,
2013-05-26 09:51:00,62.6,48.9,30.08,ENE,68,0.0,0.0,61,0.00,,,0.00,WUHU216HW,2013-05-26 13:51:00,
2013-05-26 09:56:00,62.6,48.7,30.08,WNW,293,0.0,0.0,60,0.00,,,0.00,WUHU216HW,2013-05-26 13:56:00,
2013-05-26 10:01:00,62.7,48.2,30.08,WNW,293,0.0,0.0,59,0.00,,,0.00,WUHU216HW,2013-05-26 14:01:00,
2013-05-26 10:06:00,62.9,48.8,30.09,NW,315,0.0,0.0,60,0.00,,,0.00,WUHU216HW,2013-05-26 14:06:00,
2013-05-26 10:11:00,62.9,48.3,30.09,North,0,0.0,0.0,59,0.00,,,0.00,WUHU216HW,2013-05-26 14:11:00,
2013-05-26 10:16:00,62.9,48.3,30.08,NNE,23,0.0,0.0,59,0.00,,,0.00,WUHU216HW,2013-05-26 14:16:00,
2013-05-26 10:21:00,62.9,48.3,30.09,NNE,23,0.0,0.0,59,0.00,,,0.00,WUHU216HW,2013-05-26 14:21:00,
2013-05-26 10:26:00,62.7,48.3,30.09,NNE,23,0.0,0.0,59,0.00,,,0.00,WUHU216HW,2013-05-26 14:26:00,
2013-05-26 10:31:00,62.7,47.7,30.08,NE,45,0.0,0.0,58,0.00,,,0.00,WUHU216HW,2013-05-26 14:31:00,
2013-05-26 10:36:00,62.9,47.9,30.08,North,0,0.0,0.0,58,0.00,,,0.00,WUHU216HW,2013-05-26 14:36:00,
2013-05-26 10:41:00,62.9,47.9,30.08,NW,315,0.0,0.0,58,0.00,,,0.00,WUHU216HW,2013-05-26 14:41:00,
2013-05-26 10:46:00,62.9,47.4,30.09,NNE,23,0.0,0.0,57,0.00,,,0.00,WUHU216HW,2013-05-26 14:46:00,
2013-05-26 10:51:00,62.9,47.9,30.08,NNW,338,0.0,0.0,58,0.00,,,0.00,WUHU216HW,2013-05-26 14:51:00,
2013-05-26 10:56:00,63.1,47.5,30.08,WSW,248,0.0,0.0,57,0.00,,,0.00,WUHU216HW,2013-05-26 14:56:00,
2013-05-26 11:01:00,63.1,47.5,30.08,WSW,248,0.0,0.0,57,0.00,,,0.00,WUHU216HW,2013-05-26 15:01:00,
2013-05-26 11:06:00,63.3,47.7,30.08,NE,45,0.0,0.0,57,0.00,,,0.00,WUHU216HW,2013-05-26 15:06:00,
2013-05-26 11:11:00,63.3,47.7,30.08,NE,45,0.0,0.0,57,0.00,,,0.00,WUHU216HW,2013-05-26 15:11:00,
2013-05-26 11:16:00,63.3,47.2,30.08,NNE,23,0.0,0.0,56,0.00,,,0.00,WUHU216HW,2013-05-26 15:16:00,
2013-05-26 11:21:00,63.3,47.2,30.08,NNE,23,0.0,0.0,56,0.00,,,0.00,WUHU216HW,2013-05-26 15:21:00,
2013-05-26 11:26:00,63.5,47.4,30.08,NE,45,0.0,0.0,56,0.00,,,0.00,WUHU216HW,2013-05-26 15:26:00,
2013-05-26 11:31:00,63.6,47.5,30.08,NE,45,0.0,0.0,56,0.00,,,0.00,WUHU216HW,2013-05-26 15:31:00,
2013-05-26 11:36:00,63.8,47.7,30.08,NNW,338,0.0,0.0,56,0.00,,,0.00,WUHU216HW,2013-05-26 15:36:00,
2013-05-26 11:41:00,64.0,47.4,30.08,North,0,0.0,0.0,55,0.00,,,0.00,WUHU216HW,2013-05-26 15:41:00,
2013-05-26 11:46:00,64.2,48.0,30.07,NNE,23,0.0,0.0,56,0.00,,,0.00,WUHU216HW,2013-05-26 15:46:00,
2013-05-26 11:51:00,64.2,48.0,30.07,South,180,0.0,0.0,56,0.00,,,0.00,WUHU216HW,2013-05-26 15:51:00,
2013-05-26 11:56:00,64.5,48.9,30.07,SSW,203,0.0,0.0,57,0.00,,,0.00,WUHU216HW,2013-05-26 15:56:00,
2013-05-26 12:01:00,64.5,48.4,30.07,SSE,158,0.0,0.0,56,0.00,,,0.00,WUHU216HW,2013-05-26 16:01:00,
2013-05-26 12:06:00,64.9,48.2,30.07,SSE,158,0.0,0.0,55,0.00,,,0.00,WUHU216HW,2013-05-26 16:06:00,
2013-05-26 12:11:00,65.1,48.4,30.08,NNW,338,0.0,0.0,55,0.00,,,0.00,WUHU216HW,2013-05-26 16:11:00,
2013-05-26 12:16:00,65.3,48.1,30.07,West,270,0.0,0.0,54,0.00,,,0.00,WUHU216HW,2013-05-26 16:16:00,
2013-05-26 12:21:00,65.4,47.8,30.08,WNW,293,0.0,0.0,53,0.00,,,0.00,WUHU216HW,2013-05-26 16:21:00,
2013-05-26 12:26:00,65.4,47.8,30.08,North,0,0.0,0.0,53,0.00,,,0.00,WUHU216HW,2013-05-26 16:26:00,
2013-05-26 12:31:00,65.4,48.3,30.07,NNW,338,0.0,0.0,54,0.00,,,0.00,WUHU216HW,2013-05-26 16:31:00,
2013-05-26 12:36:00,66.0,48.8,30.07,SW,225,0.0,0.0,54,0.00,,,0.00,WUHU216HW,2013-05-26 16:36:00,
2013-05-26 12:41:00,66.0,47.9,30.07,SSW,203,0.0,0.0,52,0.00,,,0.00,WUHU216HW,2013-05-26 16:41:00,
2013-05-26 12:46:00,66.5,48.2,30.06,North,0,0.0,0.0,52,0.00,,,0.00,WUHU216HW,2013-05-26 16:46:00,
2013-05-26 12:51:00,66.7,48.5,30.06,ENE,68,0.0,0.0,52,0.00,,,0.00,WUHU216HW,2013-05-26 16:51:00,
2013-05-26 12:56:00,67.1,49.3,30.06,NNE,23,0.0,0.0,53,0.00,,,0.00,WUHU216HW,2013-05-26 16:56:00,
2013-05-26 13:01:00,67.2,48.5,30.06,NW,315,0.0,0.0,51,0.00,,,0.00,WUHU216HW,2013-05-26 17:01:00,
2013-05-26 13:06:00,67.2,47.4,30.06,NNW,338,0.0,0.0,49,0.00,,,0.00,WUHU216HW,2013-05-26 17:06:00,
2013-05-26 13:11:00,67.2,48.0,30.06,NNW,338,0.0,0.0,50,0.00,,,0.00,WUHU216HW,2013-05-26 17:11:00,
2013-05-26 13:16:00,67.6,47.8,30.05,NNW,338,0.0,0.0,49,0.00,,,0.00,WUHU216HW,2013-05-26 17:16:00,
2013-05-26 13:21:00,67.6,47.8,30.06,NNW,338,0.0,0.0,49,0.00,,,0.00,WUHU216HW,2013-05-26 17:21:00,
2013-05-26 13:26:00,67.8,47.9,30.05,NNW,338,0.0,0.0,49,0.00,,,0.00,WUHU216HW,2013-05-26 17:26:00,
2013-05-26 13:31:00,67.8,47.9,30.05,NNW,338,0.0,0.0,49,0.00,,,0.00,WUHU216HW,2013-05-26 17:31:00,
2013-05-26 13:36:00,68.1,47.7,30.05,SSW,203,0.0,0.0,48,0.00,,,0.00,WUHU216HW,2013-05-26 17:36:00,
2013-05-26 13:41:00,68.5,47.4,30.05,West,270,0.0,0.0,47,0.00,,,0.00,WUHU216HW,2013-05-26 17:41:00,
2013-05-26 13:46:00,68.7,48.2,30.05,WSW,248,0.0,0.0,48,0.00,,,0.00,WUHU216HW,2013-05-26 17:46:00,
2013-05-26 13:51:00,69.0,48.5,30.05,ENE,68,0.0,0.0,48,0.00,,,0.00,WUHU216HW,2013-05-26 17:51:00,
2013-05-26 13:56:00,69.4,49.4,30.05,NNW,338,0.0,0.0,49,0.00,,,0.00,WUHU216HW,2013-05-26 17:56:00,
2013-05-26 14:01:00,69.6,49.0,30.04,NE,45,0.0,0.0,48,0.00,,,0.00,WUHU216HW,2013-05-26 18:01:00,
2013-05-26 14:06:00,69.9,49.3,30.03,WNW,293,0.0,0.0,48,0.00,,,0.00,WUHU216HW,2013-05-26 18:06:00,
2013-05-26 14:11:00,69.9,48.7,30.03,NNE,23,0.0,0.0,47,0.00,,,0.00,WUHU216HW,2013-05-26 18:11:00,
2013-05-26 14:16:00,70.1,49.4,30.03,NE,45,0.0,0.0,48,0.00,,,0.00,WUHU216HW,2013-05-26 18:16:00,
2013-05-26 14:21:00,70.5,49.8,30.03,NNW,338,0.0,0.0,48,0.00,,,0.00,WUHU216HW,2013-05-26 18:21:00,
2013-05-26 14:26:00,70.5,49.8,30.03,NNE,23,0.0,0.0,48,0.00,,,0.00,WUHU216HW,2013-05-26 18:26:00,
2013-05-26 14:31:00,70.7,49.9,30.03,WNW,293,0.0,0.0,48,0.00,,,0.00,WUHU216HW,2013-05-26 18:31:00,
2013-05-26 14:36:00,70.8,50.1,30.03,SSE,158,0.0,0.0,48,0.00,,,0.00,WUHU216HW,2013-05-26 18:36:00,
2013-05-26 14:41:00,71.4,51.2,30.03,NW,315,0.0,0.0,49,0.00,,,0.00,WUHU216HW,2013-05-26 18:41:00,
2013-05-26 14:46:00,71.4,50.0,30.02,West,270,0.0,0.0,47,0.00,,,0.00,WUHU216HW,2013-05-26 18:46:00,
2013-05-26 14:51:00,71.4,50.0,30.02,NE,45,0.0,0.0,47,0.00,,,0.00,WUHU216HW,2013-05-26 18:51:00,
2013-05-26 14:56:00,71.4,50.0,30.01,East,90,0.0,0.0,47,0.00,,,0.00,WUHU216HW,2013-05-26 18:56:00,
2013-05-26 15:01:00,71.4,50.6,30.01,ESE,113,0.0,0.0,48,0.00,,,0.00,WUHU216HW,2013-05-26 19:01:00,
2013-05-26 15:06:00,71.6,50.1,30.02,West,270,0.0,0.0,48,0.00,,,0.00,WUHU216HW,2013-05-26 19:06:00,
2013-05-26 15:11:00,71.7,50.3,30.02,WSW,248,0.0,0.0,48,0.00,,,0.00,WUHU216HW,2013-05-26 19:11:00,
2013-05-26 15:16:00,72.1,50.6,30.02,West,270,0.0,0.0,47,0.00,,,0.00,WUHU216HW,2013-05-26 19:16:00,
2013-05-26 15:21:00,72.3,50.8,30.02,NNW,338,0.0,0.0,47,0.00,,,0.00,WUHU216HW,2013-05-26 19:21:00,
2013-05-26 15:26:00,72.3,50.8,30.02,SE,135,0.0,0.0,47,0.00,,,0.00,WUHU216HW,2013-05-26 19:26:00,
2013-05-26 15:31:00,72.6,50.5,30.01,SE,135,0.0,0.0,46,0.00,,,0.00,WUHU216HW,2013-05-26 19:31:00,
2013-05-26 15:36:00,73.0,50.9,30.01,SSW,203,0.0,0.0,46,0.00,,,0.00,WUHU216HW,2013-05-26 19:36:00,
2013-05-26 15:41:00,73.0,51.4,30.00,SW,225,0.0,0.0,47,0.00,,,0.00,WUHU216HW,2013-05-26 19:41:00,
2013-05-26 15:46:00,73.2,51.6,30.00,SSE,158,0.0,0.0,47,0.00,,,0.00,WUHU216HW,2013-05-26 19:46:00,
2013-05-26 15:51:00,73.4,51.2,30.00,SW,225,0.0,0.0,46,0.00,,,0.00,WUHU216HW,2013-05-26 19:51:00,
2013-05-26 15:56:00,73.5,50.7,30.00,South,180,0.0,0.0,45,0.00,,,0.00,WUHU216HW,2013-05-26 19:56:00,
2013-05-26 16:01:00,73.7,51.5,30.00,WSW,248,0.0,0.0,46,0.00,,,0.00,WUHU216HW,2013-05-26 20:01:00,
2013-05-26 16:06:00,73.9,51.1,30.00,SW,225,0.0,0.0,45,0.00,,,0.00,WUHU216HW,2013-05-26 20:06:00,
2013-05-26 16:11:00,73.9,51.9,29.99,South,180,0.0,0.0,46,0.00,,,0.00,WUHU216HW,2013-05-26 20:11:00,
2013-05-26 16:16:00,74.1,51.9,29.99,SE,135,0.0,0.0,46,0.00,,,0.00,WUHU216HW,2013-05-26 20:16:00,
2013-05-26 16:21:00,74.3,50.8,29.99,WNW,293,0.0,0.0,44,0.00,,,0.00,WUHU216HW,2013-05-26 20:21:00,
2013-05-26 16:26:00,74.4,51.6,29.99,WNW,293,0.0,0.0,45,0.00,,,0.00,WUHU216HW,2013-05-26 20:26:00,
2013-05-26 16:31:00,74.3,50.2,29.99,South,180,0.0,0.0,43,0.00,,,0.00,WUHU216HW,2013-05-26 20:31:00,
2013-05-26 16:36:00,74.3,50.2,29.98,SSW,203,0.0,0.0,43,0.00,,,0.00,WUHU216HW,2013-05-26 20:36:00,
2013-05-26 16:41:00,74.4,49.8,29.98,SW,225,0.0,0.0,42,0.00,,,0.00,WUHU216HW,2013-05-26 20:41:00,
2013-05-26 16:46:00,74.4,50.4,29.98,SW,225,0.0,0.0,43,0.00,,,0.00,WUHU216HW,2013-05-26 20:46:00,
2013-05-26 16:51:00,74.4,50.4,29.98,ENE,68,0.0,0.0,43,0.00,,,0.00,WUHU216HW,2013-05-26 20:51:00,
2013-05-26 16:56:00,74.4,50.4,29.98,West,270,0.0,0.0,43,0.00,,,0.00,WUHU216HW,2013-05-26 20:56:00,
2013-05-26 17:01:00,74.4,50.4,29.98,NNW,338,0.0,0.0,43,0.00,,,0.00,WUHU216HW,2013-05-26 21:01:00,
2013-05-26 17:06:00,74.4,50.4,29.98,North,0,0.0,0.0,43,0.00,,,0.00,WUHU216HW,2013-05-26 21:06:00,
2013-05-26 17:11:00,74.4,50.4,29.98,SSE,158,0.0,0.0,43,0.00,,,0.00,WUHU216HW,2013-05-26 21:11:00,
2013-05-26 17:16:00,74.8,50.7,29.98,SSW,203,0.0,0.0,43,0.00,,,0.00,WUHU216HW,2013-05-26 21:16:00,
2013-05-26 17:21:00,75.0,51.5,29.98,WNW,293,0.0,0.0,43,0.00,,,0.00,WUHU216HW,2013-05-26 21:21:00,
2013-05-26 17:26:00,75.0,50.9,29.98,SSE,158,0.0,0.0,43,0.00,,,0.00,WUHU216HW,2013-05-26 21:26:00,
2013-05-26 17:30:00,75.0,50.3,29.98,WSW,248,0.0,0.0,42,0.00,,,0.00,WUHU216HW,2013-05-26 21:30:00,
2013-05-26 17:35:00,75.0,51.5,29.98,NW,315,0.0,0.0,44,0.00,,,0.00,WUHU216HW,2013-05-26 21:35:00,
2013-05-26 17:40:00,75.0,50.9,29.98,SSW,203,0.0,0.0,43,0.00,,,0.00,WUHU216HW,2013-05-26 21:40:00,
2013-05-26 17:45:00,75.0,50.9,29.98,WNW,293,0.0,0.0,43,0.00,,,0.00,WUHU216HW,2013-05-26 21:45:00,
2013-05-26 17:50:00,74.8,50.7,29.98,SW,225,0.0,0.0,43,0.00,,,0.00,WUHU216HW,2013-05-26 21:50:00,
2013-05-26 17:55:00,74.8,50.7,29.98,SSW,203,0.0,0.0,43,0.00,,,0.00,WUHU216HW,2013-05-26 21:55:00,
2013-05-26 18:00:00,74.8,51.3,29.98,SSE,158,0.0,0.0,44,0.00,,,0.00,WUHU216HW,2013-05-26 22:00:00,
2013-05-26 18:05:00,74.8,51.3,29.98,North,0,0.0,0.0,44,0.00,,,0.00,WUHU216HW,2013-05-26 22:05:00,
2013-05-26 18:10:00,74.8,51.3,29.98,NW,315,0.0,0.0,44,0.00,,,0.00,WUHU216HW,2013-05-26 22:10:00,
2013-05-26 18:15:00,74.6,50.7,29.98,West,270,0.0,0.0,43,0.00,,,0.00,WUHU216HW,2013-05-26 22:15:00,
2013-05-26 18:20:00,74.4,50.4,29.97,West,270,0.0,0.0,43,0.00,,,0.00,WUHU216HW,2013-05-26 22:20:00,
2013-05-26 18:25:00,74.4,50.4,29.97,SW,225,0.0,0.0,43,0.00,,,0.00,WUHU216HW,2013-05-26 22:25:00,
2013-05-26 18:30:00,74.6,50.6,29.97,SW,225,0.0,0.0,43,0.00,,,0.00,WUHU216HW,2013-05-26 22:30:00,
2013-05-26 18:35:00,74.4,50.4,29.97,WSW,248,0.0,0.0,43,0.00,,,0.00,WUHU216HW,2013-05-26 22:35:00,
2013-05-26 18:40:00,74.4,51.0,29.97,WNW,293,0.0,0.0,44,0.00,,,0.00,WUHU216HW,2013-05-26 22:40:00,
2013-05-26 18:45:00,74.1,50.7,29.98,WNW,293,0.0,0.0,44,0.00,,,0.00,WUHU216HW,2013-05-26 22:45:00,
2013-05-26 18:50:00,73.9,51.1,29.98,WNW,293,0.0,0.0,45,0.00,,,0.00,WUHU216HW,2013-05-26 22:50:00,
2013-05-26 18:55:00,73.7,50.9,29.98,WNW,293,0.0,0.0,45,0.00,,,0.00,WUHU216HW,2013-05-26 22:55:00,
2013-05-26 19:00:00,73.5,51.3,29.98,WSW,248,0.0,0.0,46,0.00,,,0.00,WUHU216HW,2013-05-26 23:00:00,
2013-05-26 19:05:00,73.4,51.8,29.98,WSW,248,0.0,0.0,47,0.00,,,0.00,WUHU216HW,2013-05-26 23:05:00,
2013-05-26 19:10:00,73.2,51.6,29.98,WSW,248,0.0,0.0,47,0.00,,,0.00,WUHU216HW,2013-05-26 23:10:00,
2013-05-26 19:15:00,73.2,52.8,29.98,WSW,248,0.0,0.0,49,0.00,,,0.00,WUHU216HW,2013-05-26 23:15:00,
2013-05-26 19:20:00,73.0,52.6,29.98,West,270,0.0,0.0,49,0.00,,,0.00,WUHU216HW,2013-05-26 23:20:00,
2013-05-26 19:25:00,72.6,52.9,29.98,West,270,0.0,0.0,50,0.00,,,0.00,WUHU216HW,2013-05-26 23:25:00,
2013-05-26 19:30:00,72.3,52.6,29.98,West,270,0.0,0.0,50,0.00,,,0.00,WUHU216HW,2013-05-26 23:30:00,
2013-05-26 19:35:00,72.1,52.9,29.98,West,270,0.0,0.0,51,0.00,,,0.00,WUHU216HW,2013-05-26 23:35:00,
2013-05-26 19:40:00,71.9,53.3,29.98,West,270,0.0,0.0,52,0.00,,,0.00,WUHU216HW,2013-05-26 23:40:00,
2013-05-26 19:45:00,71.7,53.6,29.99,West,270,0.0,0.0,53,0.00,,,0.00,WUHU216HW,2013-05-26 23:45:00,
2013-05-26 19:50:00,71.4,53.3,29.98,West,270,0.0,0.0,53,0.00,,,0.00,WUHU216HW,2013-05-26 23:50:00,
2013-05-26 19:55:00,71.2,53.6,29.99,West,270,0.0,0.0,54,0.00,,,0.00,WUHU216HW,2013-05-26 23:55:00,
2013-05-26 20:00:00,70.8,53.8,29.98,West,270,0.0,0.0,55,0.00,,,0.00,WUHU216HW,2013-05-27 00:00:00,
2013-05-26 20:05:00,70.7,53.6,29.99,West,270,0.0,0.0,55,0.00,,,0.00,WUHU216HW,2013-05-27 00:05:00,
2013-05-26 20:10:00,70.5,54.0,29.98,West,270,0.0,0.0,56,0.00,,,0.00,WUHU216HW,2013-05-27 00:10:00,
2013-05-26 20:15:00,70.3,53.8,29.99,West,270,0.0,0.0,56,0.00,,,0.00,WUHU216HW,2013-05-27 00:15:00,
2013-05-26 20:20:00,69.9,54.0,29.99,West,270,0.0,0.0,57,0.00,,,0.00,WUHU216HW,2013-05-27 00:20:00,
2013-05-26 20:25:00,69.6,53.7,29.99,West,270,0.0,0.0,57,0.00,,,0.00,WUHU216HW,2013-05-27 00:25:00,
2013-05-26 20:30:00,69.4,53.5,30.00,West,270,0.0,0.0,57,0.00,,,0.00,WUHU216HW,2013-05-27 00:30:00,
2013-05-26 20:35:00,69.2,53.8,30.00,West,270,0.0,0.0,58,0.00,,,0.00,WUHU216HW,2013-05-27 00:35:00,
2013-05-26 20:40:00,69.0,53.6,30.00,West,270,0.0,0.0,58,0.00,,,0.00,WUHU216HW,2013-05-27 00:40:00,
2013-05-26 20:45:00,68.9,53.9,29.99,West,270,0.0,0.0,59,0.00,,,0.00,WUHU216HW,2013-05-27 00:45:00,
2013-05-26 20:50:00,68.7,53.8,30.00,West,270,0.0,0.0,59,0.00,,,0.00,WUHU216HW,2013-05-27 00:50:00,
2013-05-26 20:55:00,68.3,53.9,30.00,West,270,0.0,0.0,60,0.00,,,0.00,WUHU216HW,2013-05-27 00:55:00,
2013-05-26 21:00:00,68.1,53.7,29.98,West,270,0.0,0.0,60,0.00,,,0.00,WUHU216HW,2013-05-27 01:00:00,
2013-05-26 21:05:00,68.0,54.0,30.00,West,270,0.0,0.0,61,0.00,,,0.00,WUHU216HW,2013-05-27 01:05:00,
2013-05-26 21:10:00,67.8,54.2,29.99,West,270,0.0,0.0,62,0.00,,,0.00,WUHU216HW,2013-05-27 01:10:00,
2013-05-26 21:15:00,67.6,54.1,29.99,West,270,0.0,0.0,62,0.00,,,0.00,WUHU216HW,2013-05-27 01:15:00,
2013-05-26 21:20:00,67.2,53.7,29.99,West,270,0.0,0.0,63,0.00,,,0.00,WUHU216HW,2013-05-27 01:20:00,
2013-05-26 21:25:00,67.2,54.2,29.99,West,270,0.0,0.0,63,0.00,,,0.00,WUHU216HW,2013-05-27 01:25:00,
2013-05-26 21:30:00,67.1,54.0,29.99,West,270,0.0,0.0,63,0.00,,,0.00,WUHU216HW,2013-05-27 01:30:00,
2013-05-26 21:35:00,66.7,53.8,30.00,West,270,0.0,0.0,63,0.00,,,0.00,WUHU216HW,2013-05-27 01:35:00,
2013-05-26 21:40:00,66.5,53.9,30.00,West,270,0.0,0.0,64,0.00,,,0.00,WUHU216HW,2013-05-27 01:40:00,
2013-05-26 21:45:00,66.3,54.2,29.99,West,270,0.0,0.0,65,0.00,,,0.00,WUHU216HW,2013-05-27 01:45:00,
2013-05-26 21:50:00,66.3,54.2,30.00,West,270,0.0,0.0,65,0.00,,,0.00,WUHU216HW,2013-05-27 01:50:00,
2013-05-26 21:55:00,66.2,54.0,30.00,West,270,0.0,0.0,65,0.00,,,0.00,WUHU216HW,2013-05-27 01:55:00,
2013-05-26 22:00:00,66.0,54.2,30.00,West,270,0.0,0.0,66,0.00,,,0.00,WUHU216HW,2013-05-27 02:00:00,
2013-05-26 22:05:00,66.0,54.2,30.00,West,270,0.0,0.0,66,0.00,,,0.00,WUHU216HW,2013-05-27 02:05:00,
2013-05-26 22:10:00,65.8,54.1,30.00,West,270,0.0,0.0,66,0.00,,,0.00,WUHU216HW,2013-05-27 02:10:00,
2013-05-26 22:15:00,65.6,54.3,30.00,West,270,0.0,0.0,67,0.00,,,0.00,WUHU216HW,2013-05-27 02:15:00,
2013-05-26 22:20:00,65.4,53.7,30.00,West,270,0.0,0.0,66,0.00,,,0.00,WUHU216HW,2013-05-27 02:20:00,
2013-05-26 22:25:00,65.3,54.0,30.00,West,270,0.0,0.0,67,0.00,,,0.00,WUHU216HW,2013-05-27 02:25:00,
2013-05-26 22:30:00,65.1,53.8,30.00,West,270,0.0,0.0,67,0.00,,,0.00,WUHU216HW,2013-05-27 02:30:00,
2013-05-26 22:35:00,64.9,53.6,30.00,West,270,0.0,0.0,67,0.00,,,0.00,WUHU216HW,2013-05-27 02:35:00,
2013-05-26 22:40:00,64.7,53.9,30.00,West,270,0.0,0.0,68,0.00,,,0.00,WUHU216HW,2013-05-27 02:40:00,
2013-05-26 22:45:00,64.7,53.9,30.00,West,270,0.0,0.0,68,0.00,,,0.00,WUHU216HW,2013-05-27 02:45:00,
2013-05-26 22:50:00,64.5,53.7,30.01,West,270,0.0,0.0,68,0.00,,,0.00,WUHU216HW,2013-05-27 02:50:00,
2013-05-26 22:55:00,64.5,53.7,30.00,West,270,0.0,0.0,68,0.00,,,0.00,WUHU216HW,2013-05-27 02:55:00,
2013-05-26 23:00:00,64.2,53.8,30.01,West,270,0.0,0.0,69,0.00,,,0.00,WUHU216HW,2013-05-27 03:00:00,
2013-05-26 23:05:00,64.2,53.8,30.00,West,270,0.0,0.0,69,0.00,,,0.00,WUHU216HW,2013-05-27 03:05:00,
2013-05-26 23:10:00,64.2,53.8,30.01,West,270,0.0,0.0,69,0.00,,,0.00,WUHU216HW,2013-05-27 03:10:00,
2013-05-26 23:15:00,64.0,53.7,30.01,West,270,0.0,0.0,69,0.00,,,0.00,WUHU216HW,2013-05-27 03:15:00,
2013-05-26 23:20:00,64.0,53.7,30.01,West,270,0.0,0.0,69,0.00,,,0.00,WUHU216HW,2013-05-27 03:20:00,
2013-05-26 23:25:00,63.8,53.5,30.01,West,270,0.0,0.0,69,0.00,,,0.00,WUHU216HW,2013-05-27 03:25:00,
2013-05-26 23:30:00,63.6,53.3,30.01,West,270,0.0,0.0,69,0.00,,,0.00,WUHU216HW,2013-05-27 03:30:00,
2013-05-26 23:35:00,63.6,53.3,30.01,West,270,0.0,0.0,69,0.00,,,0.00,WUHU216HW,2013-05-27 03:35:00,
2013-05-26 23:40:00,63.5,53.6,30.02,West,270,0.0,0.0,70,0.00,,,0.00,WUHU216HW,2013-05-27 03:40:00,
2013-05-26 23:45:00,63.3,53.4,30.02,West,270,0.0,0.0,70,0.00,,,0.00,WUHU216HW,2013-05-27 03:45:00,
2013-05-26 23:50:00,63.1,53.2,30.02,West,270,0.0,0.0,70,0.00,,,0.00,WUHU216HW,2013-05-27 03:50:00,
2013-05-26 23:55:00,63.1,53.2,30.02,West,270,0.0,0.0,70,0.00,,,0.00,WUHU216HW,2013-05-27 03:55:00,